Flag for Brunei Weather past 2 weeks in Bandar Seri Begawan, Brunei

Now
90 °F

Partly sunny.


Feels Like: 105 °F
Forecast: 79 / 90 °F
Wind: 9 mph from Northwest

Location: Brunei Airport


UV Index: 7 (High)

Visibility: N/A


Pressure: 29.77 "Hg

Humidity: 71%

Dew point: 79 °F

Location of Bandar Seri BegawanLocation

Historic Weather in Bandar Seri Begawan

°F

Bandar Seri Begawan temperature yesterday

Maximum temperature yesterday: 90 °F (at 12:00 PM)
Minimum temperature yesterday: 77 °F (at 5:30 AM)
Average temperature yesterday: 84 °F

Past Weeks' High & Low Weather Summary

 TemperatureHumidityPressure
High91 °F (Apr 16, 11:30 AM)100% (Apr 6, 10:30 PM)29.95 "Hg (Apr 6, 10:30 PM)
Low75 °F (Apr 13, 12:00 AM)49% (Apr 15, 1:30 PM)29.74 "Hg (Apr 11, 3:30 PM)
Average83 °F82%29.84 "Hg
* Reported Apr 6 4:00 PM — Apr 21 4:00 PM, Bandar Seri Begawan, Weather by CustomWeather, © 2014

Note: Actual official high and low records may vary slightly from our data, if they occured in-between our weather recording intervals... More about our weather records

Advertising

Historic Weather Conditions — Data for Previous 24 hours

 ConditionsComfort  
Time TempWeatherWind HumidityBarometerVisibility
4:00 PM
Apr 21
88 °FPartly sunny.10 mph70%29.77 "HgN/A
3:30 PM90 °FPartly sunny.10 mph71%29.77 "HgN/A
3:00 PM90 °FScattered clouds.12 mph67%29.77 "HgN/A
2:30 PM90 °FScattered clouds.12 mph63%29.77 "HgN/A
2:00 PM90 °FScattered clouds.12 mph63%29.77 "HgN/A
1:30 PM90 °FBroken clouds.6 mph67%29.80 "HgN/A
1:00 PM88 °FSprinkles. Broken clouds.8 mph75%29.83 "HgN/A
12:30 PM90 °FBroken clouds.9 mph67%29.83 "HgN/A
12:00 PM90 °FBroken clouds.6 mph67%29.83 "HgN/A
11:30 AM90 °FBroken clouds.7 mph67%29.83 "HgN/A
10:30 AM90 °FBroken clouds.2 mph63%29.83 "HgN/A
10:00 AM90 °FBroken clouds.3 mph63%29.86 "HgN/A
9:30 AM88 °FPartly sunny.3 mph70%29.86 "HgN/A
9:00 AM86 °FPartly sunny.3 mph75%29.83 "HgN/A
8:30 AM84 °FPartly sunny.5 mph79%29.83 "HgN/A
8:00 AM82 °FPartly sunny.3 mph84%29.83 "HgN/A
7:30 AM81 °FPartly sunny.2 mph89%29.83 "HgN/A
7:00 AM79 °FPartly sunny.2 mph94%29.80 "HgN/A
6:30 AM77 °FPartly sunny.2 mph100%29.80 "HgN/A
6:00 AM77 °FPassing clouds.5 mph100%29.80 "HgN/A
5:00 AM79 °FPassing clouds.2 mph94%29.80 "HgN/A
4:30 AM79 °FPassing clouds.2 mph94%29.80 "HgN/A
4:00 AM79 °FPassing clouds.2 mph94%29.80 "HgN/A
3:30 AM79 °FPassing clouds.6 mph94%29.77 "HgN/A
3:00 AM79 °FPassing clouds.5 mph94%29.80 "HgN/A
2:30 AM79 °FPassing clouds.2 mph94%29.77 "HgN/A
2:00 AM81 °FPassing clouds.1 mph89%29.80 "HgN/A
1:30 AM81 °FPassing clouds.1 mph89%29.80 "HgN/A
1:00 AM81 °FPassing clouds.2 mph89%29.80 "HgN/A
12:30 AM81 °FPassing clouds.1 mph89%29.83 "HgN/A
12:00 AM82 °FPassing clouds.1 mph84%29.83 "HgN/A
11:30 PM
Apr 20
82 °FPassing clouds.1 mph84%29.83 "HgN/A
11:00 PM82 °FPassing clouds.2 mph84%29.83 "HgN/A
10:30 PM82 °FPassing clouds.2 mph84%29.83 "HgN/A
10:00 PM82 °FPassing clouds.5 mph84%29.83 "HgN/A
9:30 PM82 °FPassing clouds.3 mph84%29.83 "HgN/A
9:00 PM84 °FPassing clouds.3 mph79%29.80 "HgN/A
8:30 PM84 °FPassing clouds.3 mph79%29.80 "HgN/A
8:00 PM84 °FPassing clouds.5 mph79%29.77 "HgN/A
7:30 PM84 °FPassing clouds.3 mph79%29.77 "HgN/A
7:00 PM84 °FPassing clouds.5 mph79%29.77 "HgN/A
6:30 PM86 °FPassing clouds.5 mph70%29.77 "HgN/A
6:00 PM86 °FPartly sunny.5 mph70%29.77 "HgN/A
5:30 PM86 °FPartly sunny.7 mph75%29.77 "HgN/A
5:00 PM88 °FPartly sunny.9 mph66%29.74 "HgN/A
Weather by CustomWeather, © 2014

See weather overview